FW4072 Weather Reports


Display with metric or nautical units.
time (UTC)temp
F
wind
direction
speed
MPH
gust
MPH
rain 1hr
in
rain 24hr
in
rain mn
in
humidity
%
barometer
mb
20260502163811 55 113 1.0 4.0 0.00 0.00 0.00 14 1022.5
20260502162910 55 0.0 2.0 0.00 0.00 0.00 13 1022.5
20260502161109 55 0.0 2.0 0.00 0.00 0.00 13 1022.6
20260502160209 56 158 1.0 3.0 0.00 0.00 0.00 12 1022.5
20260502151705 57 135 1.0 4.0 0.00 0.00 0.00 11 1022.9
20260502150804 58 113 0.0 2.0 0.00 0.00 0.00 10 1023.0
20260502130156 60 135 1.0 3.0 0.00 0.00 0.00 1023.1
20260502123454 59 1.0 2.0 0.00 0.00 0.00 10 1023.3
20260502122635 59 135 2.0 4.0 0.00 0.00 0.00 1023.5
20260502121654 59 0.0 2.0 0.00 0.00 0.00 1023.4
20260502120812 60 135 2.0 4.0 0.00 0.00 0.00 1023.6
20260502115851 59 135 2.0 6.0 0.00 0.00 0.00 1023.5
20260502114052 58 113 3.0 5.0 0.00 0.00 0.00 1023.6
20260502113149 58 1.0 3.0 0.00 0.00 0.00 1023.6
20260502112249 59 158 2.0 4.0 0.00 0.00 0.00 1023.8
20260502111348 59 2.0 4.0 0.00 0.00 0.00 1023.7
20260502110528 60 2.0 5.0 0.00 0.00 0.00 1023.6
20260502105607 60 2.0 2.0 0.00 0.00 0.00 1023.7
20260502104646 61 135 1.0 4.0 0.00 0.00 0.00 1023.6
20260502103746 58 135 2.0 6.0 0.00 0.00 0.00 1023.8
20260502102845 58 121 1.0 5.0 0.00 0.00 0.00 1023.7
20260502101044 59 135 1.0 2.0 0.00 0.00 0.00 1023.5
20260502100143 59 158 2.0 5.0 0.00 0.00 0.00 1023.6
20260502090741 61 135 1.0 4.0 0.00 0.00 0.00 1023.8
20260502071031 60 113 2.0 6.0 0.00 0.00 0.00 13 1023.6
20260502070130 59 1.0 2.0 0.00 0.00 0.00 15 1023.5
20260502065230 58 0.0 1.0 0.00 0.00 0.00 25 1023.5
20260502064329 56 135 2.0 2.0 0.00 0.00 0.00 27 1023.4
20260502063429 54 0.0 1.0 0.00 0.00 0.00 35 1023.4
20260502062548 53 113 1.0 2.0 0.00 0.00 0.00 34 1023.4
20260502061627 53 0.0 2.0 0.00 0.00 0.00 39 1023.5
20260502060727 52 0.0 1.0 0.00 0.00 0.00 41 1023.5
20260502055826 51 0.0 1.0 0.00 0.00 0.00 44 1023.4
20260502054025 50 0.0 1.0 0.00 0.00 0.00 46 1023.5
20260502053205 49 0.0 1.0 0.00 0.00 0.00 47 1023.3
20260502052224 49 0.0 2.0 0.00 0.00 0.00 48 1023.2
20260502051323 48 0.0 1.0 0.00 0.00 0.00 49 1023.2
20260502050424 47 0.0 1.0 0.00 0.00 0.00 50 1023.2
20260502045542 47 0.0 1.0 0.00 0.00 0.00 51 1023.1
20260502044621 47 135 1.0 2.0 0.00 0.00 0.00 52 1023.1
20260502043722 47 0.0 2.0 0.00 0.00 0.00 52 1023.0
20260502042820 47 0.0 1.0 0.00 0.00 0.00 53 1022.8
20260502041019 47 0.0 0.0 0.00 0.00 0.00 55 1022.7
20260502040119 46 0.0 0.0 0.00 0.00 0.00 55 1022.6
20260502035217 46 0.0 1.0 0.00 0.00 0.00 55 1022.6
20260502034316 46 0.0 1.0 0.00 0.00 0.00 55 1022.6
20260502033417 46 0.0 1.0 0.00 0.00 0.00 55 1022.5
20260502032515 46 0.0 0.0 0.00 0.00 0.00 55 1022.4
20260502031614 46 0.0 1.0 0.00 0.00 0.00 55 1022.3
20260502030714 46 0.0 1.0 0.00 0.00 0.00 54 1022.2
20260502025813 46 0.0 1.0 0.00 0.00 0.00 53 1022.2
20260502024913 46 0.0 0.0 0.00 0.00 0.00 53 1022.3
20260502023132 47 0.0 0.0 0.00 0.00 0.00 52 1022.2
20260502022211 47 0.0 1.0 0.00 0.00 0.00 52 1022.2
20260502021310 47 0.0 1.0 0.00 0.00 0.00 53 1022.4
20260502020409 47 0.0 1.0 0.00 0.00 0.00 53 1022.3
20260502015509 46 0.0 1.0 0.00 0.00 0.00 54 1022.2
20260502014608 46 0.0 0.0 0.00 0.00 0.00 54 1022.4
20260502013709 47 0.0 1.0 0.00 0.00 0.00 53 1022.5
20260502012829 47 0.0 1.0 0.00 0.00 0.00 53 1022.4
20260502011906 47 0.0 2.0 0.00 0.00 0.00 52 1022.4
20260502010106 47 0.0 0.0 0.00 0.00 0.00 52 1022.4
20260502005224 47 0.0 1.0 0.00 0.00 0.00 51 1022.4
20260502004304 47 0.0 0.0 0.00 0.00 0.00 50 1022.4
20260502003404 48 0.0 1.0 0.00 0.00 0.00 50 1022.4
20260502002502 48 0.0 0.0 0.00 0.00 0.00 49 1022.4
20260502001602 48 0.0 1.0 0.00 0.00 0.00 48 1022.3
20260502000723 49 0.0 0.0 0.00 0.00 0.00 47 1022.4
20260501235800 49 0.0 1.0 0.00 0.00 0.00 47 1022.4
20260501234920 49 0.0 2.0 0.00 0.00 0.00 46 1022.4
20260501233059 49 0.0 0.0 0.00 0.00 0.00 45 1022.5
20260501232158 49 0.0 1.0 0.00 0.00 0.00 45 1022.5
20260501231257 49 0.0 1.0 0.00 0.00 0.00 44 1022.5
20260501230356 49 0.0 0.0 0.00 0.00 0.00 44 1022.6
20260501225456 49 0.0 2.0 0.00 0.00 0.00 44 1022.5
20260501224555 49 0.0 1.0 0.00 0.00 0.00 43 1022.5
20260501223655 49 0.0 2.0 0.00 0.00 0.00 43 1022.7
20260501222756 50 0.0 2.0 0.00 0.00 0.00 42 1022.8
20260501221914 50 0.0 1.0 0.00 0.00 0.00 40 1022.6
20260501220052 50 0.0 1.0 0.00 0.00 0.00 39 1022.7
20260501215152 50 0.0 0.0 0.00 0.00 0.00 39 1022.6
20260501214251 50 0.0 1.0 0.00 0.00 0.00 38 1022.6
20260501213350 50 0.0 2.0 0.00 0.00 0.00 38 1022.7
20260501212449 50 0.0 0.0 0.00 0.00 0.00 38 1022.6
20260501211549 50 0.0 0.0 0.00 0.00 0.00 37 1022.6
20260501210648 50 0.0 1.0 0.00 0.00 0.00 36 1022.7
20260501205749 51 0.0 0.0 0.00 0.00 0.00 35 1022.8
20260501204907 51 0.0 1.0 0.00 0.00 0.00 33 1022.7
20260501203046 51 0.0 1.0 0.00 0.00 0.00 32 1022.7
20260501202145 51 0.0 1.0 0.00 0.00 0.00 31 1022.8
20260501201305 51 0.0 0.0 0.00 0.00 0.00 31 1022.8
20260501200344 52 0.0 0.0 0.00 0.00 0.00 30 1022.8
20260501195444 52 0.0 1.0 0.00 0.00 0.00 30 1022.7
20260501194543 52 0.0 2.0 0.00 0.00 0.00 29 1022.8
20260501193642 52 0.0 2.0 0.00 0.00 0.00 28 1022.8
20260501192742 52 135 1.0 2.0 0.00 0.00 0.00 28 1022.7
20260501191841 52 0.0 2.0 0.00 0.00 0.00 27 1022.8
20260501190041 52 0.0 0.0 0.00 0.00 0.00 26 1022.6
20260501185201 52 0.0 1.0 0.00 0.00 0.00 25 1022.8
20260501184259 51 0.0 1.0 0.00 0.00 0.00 25 1022.6
20260501183358 51 0.0 1.0 0.00 0.00 0.00 25 1022.7
20260501182457 51 0.0 2.0 0.00 0.00 0.00 25 1022.7
20260501181538 51 0.0 0.0 0.00 0.00 0.00 26 1022.5
20260501180636 52 0.0 0.0 0.00 0.00 0.00 26 1022.5
20260501175735 52 0.0 0.0 0.00 0.00 0.00 24 1022.5
20260501174834 52 158 0.0 2.0 0.00 0.00 0.00 23 1022.5
20260501173034 52 0.0 1.0 0.00 0.00 0.00 22 1022.3
20260501172133 53 0.0 0.0 0.00 0.00 0.00 20 1022.4
20260501171232 53 0.0 0.0 0.00 0.00 0.00 19 1022.3